Terminal Aerodrome Forecast
Issued by NWS

Home | Current Version | Previous Version | Text Only | Print | Product List | Glossary On
Versions: 1 2 3 4 5 6 7 8 9 10 11 12 13 14
000
FTUS45 KGGW 310500
TAFSDY
TAF
KSDY 310520Z 3106/0106 VRB03KT P6SM BKN110
     FM312100 32008KT 6SM -TSRA BKN050CB BKN100
     FM010300 30009KT P6SM VCTS BKN060CB
      AMD LTD TO CLD VIS AND WIND=

USA.gov is the U.S. government's official web portal to all federal, state and local government web resources and services.